Terminal Aerodrome Forecast
Issued by NWS Omaha/Valley, NE

Home | Current Version | Previous Version | Graphics & Text | Print | Product List | Glossary On
Versions: 1 2 3 4 5 6 7 8 9 10 11 12 13 14 15 16 17 18 19 20 21 22 23 24 25 26 27 28 29 30 31 32 33 34 35 36 37 38 39 40 41 42 43 44 45 46 47 48 49
000
FTUS43 KOAX 060520
TAFOFK
TAF
KOFK 060520Z 0606/0706 15011KT 6SM -RA OVC050
     FM061000 14011KT 4SM -RA BR OVC015
     FM061600 16017G24KT P6SM OVC015
     FM061800 15018G26KT P6SM OVC050 PROB30 0620/0702 3SM TSRA
      BKN025CB=

USA.gov is the U.S. government's official web portal to all federal, state and local government web resources and services.